Regional Weather Roundup
Issued by NWS Northern Indiana

Home | Current Version | Previous Version | Text Only | Print | Product List | Glossary On
Versions: 1 2 3 4 5 6 7 8 9 10 11 12 13 14 15 16 17 18 19 20 21 22 23 24 25 26 27 28 29 30 31 32 33 34 35 36 37 38 39 40 41 42 43 44 45 46 47 48 49 50
368
ASUS43 KIWX 191710
RWRIWX

KIWX WEATHER ROUNDUP
NATIONAL WEATHER SERVICE NORTHERN INDIANA
1200 PM EST SUN NOV 19 2017

NOTE: "FAIR" INDICATES FEW OR NO CLOUDS BELOW 12,000 FEET WITH NO
SIGNIFICANT WEATHER AND/OR OBSTRUCTIONS TO VISIBILITY.

* THESE STATIONS ARE NOT UNDER NWS QUALITY CONTROL. THEY ALSO MAY NOT
  REPORT WEATHER SUCH AS PRECIPITATION OR FOG.

INZ001>027-191800-
NORTHERN INDIANA

CITY           SKY/WX    TMP DP  RH WIND       PRES   REMARKS
GARY*          PTSUNNY   34  21  60 W17       30.05S WCI  23
VALPARAISO     SUNNY     36  22  56 W14       30.03S
MICHIGAN CITY* CLOUDY    32  21  64 W10G20    30.03R WCI  24
LAPORTE*       CLOUDY    32  22  66 W15G22    30.02S WCI  22
KNOX*          PTSUNNY   32  27  80 W12G20    30.02S WCI  23
SOUTH BEND     CLOUDY    32  24  72 W9G17     29.99S WCI  24
GOSHEN         CLOUDY    34  22  61 W21G28    29.97R WCI  22
MONTICELLO*    CLOUDY    31  24  72 W12       30.05S WCI  22
LOGANSPORT*    CLOUDY    32  23  69 W14G20    30.05S WCI  22
ROCHESTER*     CLOUDY    36  27  69 W13       30.01F
WARSAW*        CLOUDY    34  25  69 W15G23    29.99R WCI  24
AUBURN*        CLOUDY    36  28  75 W13G24    29.96R
FORT WAYNE     CLOUDY    36  26  67 W18       29.98R
HUNTINGTON*    CLOUDY    34  26  73 W14G20    29.99R WCI  25
PERU/GRISSOM   CLOUDY    34  25  69 W15       30.02S WCI  24
MARION*        CLOUDY    32  28  83 W22       30.03R FOG     WCI  20

$$
INZ028>050-191800-
CENTRAL INDIANA

CITY           SKY/WX    TMP DP  RH WIND       PRES   REMARKS
LAFAYETTE      CLOUDY    30  23  75 W9        30.08R WCI  22
KOKOMO*        CLOUDY    32  25  75 W18       30.04R WCI  20
MUNCIE*        CLOUDY    35  27  72 W20       30.01S WCI  24
INDIANAPOLIS   CLOUDY    33  24  69 W16       30.07S WCI  23

$$
MIZ043>046-050>051-056>058-064>065-071>073-077>080-191800-
SOUTHWEST LOWER MICHIGAN

CITY           SKY/WX    TMP DP  RH WIND       PRES   REMARKS
BATTLE CREEK   LGT SNOW  32  25  75 W16G23    29.92R WCI  21
BENTON HARBOR  CLOUDY    33  20  58 W12G25    29.99R WCI  24
COLDWATER*     CLOUDY    34  24  67 W14G23    29.92R WCI  25
HILLSDALE*     CLOUDY    34  25  69 W18G29    29.88S WCI  23
HOLLAND        CLOUDY    33  20  58 NW13      29.95R WCI  24
GRAND RAPIDS   CLOUDY    33  24  69 W14       29.91S WCI  23
KALAMAZOO      CLOUDY    33  21  61 W13G24    29.93S WCI  24
STURGIS*       CLOUDY    32  23  69 NW9       29.94S WCI  24
THREE RIVERS*  FLURRIES  34  25  70 NW12      29.95S WCI  25

$$
OHZ001>008-015>018-024>025-191800-
NORTHWEST OHIO

CITY           SKY/WX    TMP DP  RH WIND       PRES   REMARKS
WAUSEON*       CLOUDY    37  28  70 W18G26    29.89F
DEFIANCE       FLURRIES  36  27  69 W10G18    29.93S
FINDLAY        CLOUDY    38  28  67 W22G33    29.90S
TOLEDO EXPRESS CLOUDY    39  27  62 W22G32    29.89S
TOLEDO METCALF CLOUDY    39  29  67 W16       29.88F

$$
AND FOR LAKE MICHIGAN COASTAL AND OPEN LAKE BUOY OBSERVATIONS

STATION/POSITION TEMP    WIND        PRES    VSBY  WAVE
                 AIR SEA DIR/SP/G                  HT/PER
                 (F)     (DEG/KT/KT) (MB)    (MI)  (FT/S)
CALUMET HARBOR    33     260/  7/ 13 1016.5R
MICHIGAN CITY     31     270/ 20/ 23   N/A
BURNS HARBOR      33     280/ 14/ 19 1017.6R
SAINT JOSEPH      34     300/ 14/ 20 1016.6R
SOUTH LAKE BUOY   31 49  320/ 17/ 23 1016.2R         5/ 7

$$
&&




USA.gov is the U.S. government's official web portal to all federal, state and local government web resources and services.